When you browse on this site, cookies collect data to enhance your experience and personalize the content and advertising you see.
Visit our Privacy Policy to learn more. By continuing to use the site, you agree to this use of cookies and data.
  • In United Kingdom
  • List of Countries
  • For 7 days
  • Water Temperature
  • Weather Map
  • Weather Widgets
  • user-avatar
    Login

    Hourly Weather Aberdeen

    Today, 3 June, Wednesday

    Time Temperature Precipitation Wind Pressure Humidity
    00:00 +9°C° 1.1 mm 5 mps 754 mmHg 94%
    01:00 +8°C° 0.1 mm 5 mps 754 mmHg 93%
    02:00 +8°C° 0.1 mm 5 mps 754 mmHg 92%
    03:00 +7°C° 0.1 mm 5 mps 753 mmHg 90%
    04:00 +7°C° 0 mm 5 mps 753 mmHg 88%
    05:00 +7°C° 0 mm 5 mps 754 mmHg 86%
    06:00 +7°C° 0 mm 5 mps 754 mmHg 83%
    07:00 +8°C° 0 mm 5 mps 754 mmHg 79%
    08:00 +9°C° 0 mm 6 mps 754 mmHg 74%
    09:00 +10°C° 0 mm 6 mps 754 mmHg 69%
    10:00 +10°C° 0 mm 6 mps 753 mmHg 69%
    11:00 +10°C° 0 mm 5 mps 753 mmHg 70%
    12:00 +12°C° 0 mm 5 mps 753 mmHg 70%
    13:00 +11°C° 0 mm 6 mps 753 mmHg 71%
    14:00 +11°C° 0 mm 6 mps 752 mmHg 71%
    15:00 +11°C° 0 mm 6 mps 752 mmHg 72%
    16:00 +11°C° 0 mm 6 mps 752 mmHg 72%
    17:00 +12°C° 0 mm 5 mps 752 mmHg 72%
    18:00 +10°C° 0 mm 5 mps 751 mmHg 72%
    19:00 +10°C° 0 mm 4 mps 751 mmHg 76%
    20:00 +7°C° 0 mm 4 mps 751 mmHg 81%
    21:00 +7°C° 0 mm 3 mps 751 mmHg 85%
    22:00 +5°C° 0 mm 3 mps 751 mmHg 86%
    23:00 +5°C° 0 mm 2 mps 751 mmHg 88%

    Tomorrow, 4 June, Thursday

    Time Temperature Precipitation Wind Pressure Humidity
    00:00 +4°C° 0 mm 2 mps 750 mmHg 89%
    01:00 +4°C° 0 mm 2 mps 750 mmHg 88%
    02:00 +4°C° 0 mm 2 mps 749 mmHg 88%
    03:00 +4°C° 0 mm 2 mps 748 mmHg 87%
    04:00 +5°C° 0 mm 2 mps 748 mmHg 85%
    05:00 +6°C° 0 mm 2 mps 747 mmHg 82%
    06:00 +7°C° 0 mm 2 mps 747 mmHg 80%
    07:00 +8°C° 0 mm 2 mps 746 mmHg 74%
    08:00 +10°C° 0 mm 2 mps 746 mmHg 69%
    09:00 +12°C° 0 mm 2 mps 745 mmHg 63%
    10:00 +12°C° 0.1 mm 2 mps 745 mmHg 65%
    11:00 +12°C° 0.1 mm 2 mps 745 mmHg 66%
    12:00 +13°C° 0.1 mm 2 mps 744 mmHg 68%
    13:00 +12°C° 0.3 mm 2 mps 744 mmHg 72%
    14:00 +11°C° 0.3 mm 3 mps 744 mmHg 75%
    15:00 +10°C° 0.3 mm 3 mps 743 mmHg 79%
    16:00 +10°C° 0.2 mm 3 mps 743 mmHg 79%
    17:00 +10°C° 0.2 mm 2 mps 743 mmHg 79%
    18:00 +10°C° 0.2 mm 2 mps 742 mmHg 79%
    19:00 +9°C° 0.3 mm 2 mps 742 mmHg 82%
    20:00 +8°C° 0.3 mm 2 mps 742 mmHg 86%
    21:00 +7°C° 0.3 mm 2 mps 743 mmHg 89%
    22:00 +6°C° 0.1 mm 2 mps 742 mmHg 89%
    23:00 +5°C° 0.1 mm 2 mps 742 mmHg 90%

    Day after tomorrow, 5 June, Friday

    Time Temperature Precipitation Wind Pressure Humidity
    00:00 +4°C° 0.1 mm 3 mps 742 mmHg 90%
    01:00 +3°C° 0 mm 3 mps 741 mmHg 91%
    02:00 +2°C° 0 mm 3 mps 741 mmHg 91%
    03:00 +1°C° 0 mm 4 mps 741 mmHg 92%
    04:00 +3°C° 0 mm 4 mps 740 mmHg 89%
    05:00 +3°C° 0 mm 5 mps 740 mmHg 86%
    06:00 +5°C° 0 mm 5 mps 740 mmHg 84%
    07:00 +5°C° 0 mm 6 mps 739 mmHg 77%
    08:00 +6°C° 0 mm 7 mps 739 mmHg 69%
    09:00 +8°C° 0 mm 7 mps 739 mmHg 62%
    10:00 +9°C° 0.1 mm 8 mps 738 mmHg 61%
    11:00 +10°C° 0.1 mm 8 mps 738 mmHg 60%
    12:00 +10°C° 0.1 mm 9 mps 738 mmHg 58%
    13:00 +10°C° 0.1 mm 9 mps 737 mmHg 58%
    14:00 +9°C° 0.1 mm 10 mps 737 mmHg 57%
    15:00 +9°C° 0.1 mm 10 mps 737 mmHg 57%
    16:00 +8°C° 0 mm 10 mps 736 mmHg 60%
    17:00 +7°C° 0 mm 10 mps 736 mmHg 63%
    18:00 +7°C° 0 mm 10 mps 735 mmHg 66%
    19:00 +6°C° 0.1 mm 10 mps 735 mmHg 70%
    20:00 +6°C° 0.1 mm 9 mps 735 mmHg 74%
    21:00 +5°C° 0.1 mm 9 mps 734 mmHg 78%
    22:00 +5°C° 0.2 mm 8 mps 734 mmHg 81%
    23:00 +5°C° 0.2 mm 8 mps 734 mmHg 84%

    6 June, Saturday

    Time Temperature Precipitation Wind Pressure Humidity
    00:00 +5°C° 0.2 mm 7 mps 733 mmHg 86%
    01:00 +5°C° 0.4 mm 6 mps 733 mmHg 88%
    02:00 +7°C° 0.4 mm 6 mps 732 mmHg 89%
    03:00 +7°C° 0.4 mm 5 mps 732 mmHg 90%
    04:00 +7°C° 0.2 mm 5 mps 732 mmHg 89%
    05:00 +8°C° 0.2 mm 6 mps 732 mmHg 88%
    06:00 +8°C° 0.2 mm 6 mps 731 mmHg 88%
    07:00 +9°C° 0.1 mm 7 mps 731 mmHg 83%
    08:00 +10°C° 0.1 mm 8 mps 731 mmHg 79%
    09:00 +10°C° 0.1 mm 9 mps 732 mmHg 74%
    10:00 +10°C° 0.2 mm 9 mps 732 mmHg 75%
    11:00 +11°C° 0.2 mm 9 mps 732 mmHg 75%
    12:00 +11°C° 0.2 mm 9 mps 732 mmHg 75%
    13:00 +11°C° 0.6 mm 9 mps 732 mmHg 75%
    14:00 +11°C° 0.6 mm 10 mps 732 mmHg 75%
    15:00 +12°C° 0.6 mm 10 mps 733 mmHg 75%
    16:00 +11°C° 0.4 mm 10 mps 733 mmHg 78%
    17:00 +11°C° 0.4 mm 9 mps 734 mmHg 80%
    18:00 +10°C° 0.4 mm 9 mps 735 mmHg 83%
    19:00 +10°C° 0.1 mm 8 mps 736 mmHg 85%
    20:00 +9°C° 0.1 mm 7 mps 737 mmHg 87%
    21:00 +8°C° 0.1 mm 6 mps 737 mmHg 89%
    22:00 +7°C° 0 mm 6 mps 738 mmHg 90%
    23:00 +7°C° 0 mm 6 mps 739 mmHg 90%

    7 June, Sunday

    Time Temperature Precipitation Wind Pressure Humidity
    00:00 +7°C° 0 mm 6 mps 739 mmHg 91%
    01:00 +6°C° 0 mm 5 mps 740 mmHg 91%
    02:00 +6°C° 0 mm 5 mps 740 mmHg 92%
    03:00 +6°C° 0 mm 5 mps 741 mmHg 92%
    04:00 +7°C° 0 mm 4 mps 741 mmHg 90%
    05:00 +8°C° 0 mm 4 mps 742 mmHg 87%
    06:00 +10°C° 0 mm 4 mps 742 mmHg 85%
    07:00 +11°C° 0 mm 4 mps 743 mmHg 80%
    08:00 +13°C° 0 mm 4 mps 743 mmHg 75%
    09:00 +14°C° 0 mm 4 mps 744 mmHg 70%
    10:00 +14°C° 0.2 mm 4 mps 744 mmHg 72%
    11:00 +14°C° 0.2 mm 3 mps 744 mmHg 73%
    12:00 +16°C° 0.2 mm 3 mps 745 mmHg 75%
    13:00 +14°C° 1 mm 3 mps 745 mmHg 81%
    14:00 +13°C° 1 mm 3 mps 745 mmHg 87%
    15:00 +12°C° 1 mm 3 mps 745 mmHg 93%
    16:00 +12°C° 0.2 mm 4 mps 746 mmHg 90%
    17:00 +12°C° 0.2 mm 5 mps 746 mmHg 86%
    18:00 +11°C° 0.2 mm 6 mps 746 mmHg 83%
    19:00 +10°C° 0.1 mm 6 mps 746 mmHg 84%
    20:00 +10°C° 0.1 mm 5 mps 747 mmHg 84%
    21:00 +9°C° 0.1 mm 5 mps 747 mmHg 84%
    22:00 +9°C° 0.1 mm 5 mps 747 mmHg 85%
    23:00 +10°C° 0.1 mm 4 mps 747 mmHg 86%

    8 June, Monday

    Time Temperature Precipitation Wind Pressure Humidity
    00:00 +8°C° 0.1 mm 4 mps 747 mmHg 87%
    01:00 +8°C° 0 mm 4 mps 747 mmHg 87%
    02:00 +8°C° 0 mm 4 mps 747 mmHg 86%
    03:00 +8°C° 0 mm 4 mps 747 mmHg 86%
    04:00 +10°C° 0.1 mm 4 mps 747 mmHg 86%
    05:00 +10°C° 0.1 mm 4 mps 748 mmHg 86%
    06:00 +10°C° 0.1 mm 4 mps 748 mmHg 86%
    07:00 +11°C° 0.1 mm 4 mps 748 mmHg 85%
    08:00 +12°C° 0.1 mm 4 mps 748 mmHg 84%
    09:00 +13°C° 0.1 mm 5 mps 749 mmHg 82%
    10:00 +14°C° 0.2 mm 5 mps 749 mmHg 79%
    11:00 +14°C° 0.2 mm 5 mps 749 mmHg 77%
    12:00 +15°C° 0.2 mm 6 mps 749 mmHg 74%
    13:00 +15°C° 0.5 mm 6 mps 749 mmHg 76%
    14:00 +15°C° 0.5 mm 6 mps 749 mmHg 78%
    15:00 +15°C° 0.5 mm 6 mps 749 mmHg 80%
    16:00 +14°C° 0.3 mm 5 mps 749 mmHg 82%
    17:00 +14°C° 0.3 mm 5 mps 749 mmHg 83%
    18:00 +13°C° 0.3 mm 5 mps 749 mmHg 85%
    19:00 +12°C° 0.1 mm 4 mps 749 mmHg 87%
    20:00 +11°C° 0.1 mm 4 mps 750 mmHg 89%
    21:00 +10°C° 0.1 mm 3 mps 750 mmHg 92%
    22:00 +9°C° 0 mm 3 mps 750 mmHg 92%
    23:00 +9°C° 0 mm 3 mps 750 mmHg 93%
    Show more